星链-6221 (STARLINK-6221 )

导读

STARLINK-6221是美国SpaceX公司星链计划中的一颗低轨卫星互联网卫星,于2023年5月10日发射,属于星链第一代组网卫星。该星沿用成熟设计,配备相控阵天线与氪离子霍尔推进器,可自主进行轨道维持与碰撞规避。它与其他星链卫星共同构建全球覆盖的低轨互联网星座,为偏远地区提供高速互联网接入服务,设计工作寿命约5年,退役后会再入大气层完全烧毁。

基本信息
目录编号:
56484
目录名称:
STARLINK-6221
国际标识:
2023-064AN
轨道中心:
EARTH
卫星名称:
星链-6221
卫星全名:
星链-6221 (STARLINK-6221 )
卫星状态:
在轨 (已飞行1131 天)
发射日期:
2023-05-10 UTC
国别 :
美国 (US)
星等 :
--
轨道信息
数据来源 国际轨道数据 AOE轨道数据
星历时间 2026-06-14T21:47:12+0800
6小时前
查看轨道信息
2026-06-11T04:00:00+0800
4天前
查看轨道信息
半长轴 6950.186km 6950.22km
偏心率 0.0003316 0.0003241
轨道倾角 69.999° 69.999°
近地点辐角 266.649° 264.581°
升交点赤经 240.092° 249.520°
平近点角 93.429° 81.763°
近地点 569.744km 569.83km
远地点 574.354km 574.336km
周期 96.107分钟 96.108分钟
每日圈数 14.983324 14.983213
详细信息
固有亮度:
5
最大亮度:
2.5
卫星平台:
Starlink v1.5
覆盖范围:
全球
运营商:
太空探索技术公司
运营商所在国:
美国
制造商(研发单位):
太空探索技术公司
制造商所在国:
美国
使用方式:
暂无
卫星简介
星链(Starlink)计划是由太空探索技术公司(SpaceX)提出的一个巨型低轨卫星互联网星座项目,计划在2019年至2024年间在太空搭建由约1.2万颗卫星组成的“星链”网络,其中1584颗将部署在地球上空550千米处的近地轨道,并从2020年开始工作。该卫星仍在工作。
2D轨道图
3D轨道图
轨道高度分析图
轨道倾角分析图
轨道综合分析图
查看轨道综合分析图